Powrót do katalogu

MULE 4T

AktywnyŁącznośćSSO
NORAD 67286·PAYLOAD·🇷🇺 Russia

Wystrzelony Dec 28, 2025 z Vostochny Cosmodrome

Loading…

Następne Przeloty (najbliższe 24 godziny)

TLE

ŚwieżeSource: Space-Track

Epoka: Sep 14, 2026, 10:50 UTC

1 67286U 25313AQ  26257.45145376  .00006390  00000-0  25507-3 0  9990
2 67286  97.3863 331.2231 0010331  47.7761 312.4353 15.25457968 39579

Śledź MULE 4T w czasie rzeczywistym z AllMySat

Download on the App Store